[[{"header":{"parameterUnit":"m.s-1","parameterCategory":1,"la1":30.2991,"la2":30.254,"lo1":-89.0895,"lo2":-89.0444,"dy":0.0017,"dx":0.0017,"nx":28,"ny":28,"refTime":"2025-08-31T21:00:00:Z","depth":0,"parameterNumber":2,"parameterNumberName":"U-component_of_WINDS"},"data":[0,0,0,0,0,0,0,0,0,0,0,0,0,0,0,0,0,0,0,0,0,0,0,0,0,0,0,0,0,0,0,0,0,0,0,0,0,0,0,0,0,0,0,0,0,0,0,0,0,0,0,0,0,0,0,0,0,0,-1.1578,-1.1579,0,-1.1692,-1.1693,-1.1695,-1.1707,-1.1706,-1.1705,-1.1704,-1.1825,-1.1829,-1.1833,0,0,0,0,0,0,0,0,0,0,0,0,0,-1.1373,-1.1377,-1.1578,-1.1579,-1.1581,-1.1692,-1.1693,-1.1695,-1.1708,-1.1706,-1.1705,-1.1703,-1.1823,-1.1829,-1.1834,0,0,0,0,0,0,0,0,0,0,0,0,0,-1.1472,-1.1378,-1.1578,-1.16,-1.1603,-1.1691,-1.1693,-1.1695,-1.1708,-1.1706,-1.1704,-1.1703,-1.1822,-1.1828,-1.1834,-1.1909,0,0,-1.1854,-1.1857,0,0,0,0,0,0,0,0,-1.1467,-1.148,-1.1596,-1.1599,-1.1603,-1.1683,-1.1666,-1.1767,-1.1708,-1.1668,-1.1704,-1.1702,-1.178,-1.1789,-1.1815,-1.1915,-1.192,-1.1855,-1.1859,-1.1861,-1.1863,0,0,0,0,0,0,0,-1.146,-1.1475,-1.1623,-1.1597,-1.1602,-1.1606,-1.1618,-1.1685,-1.1732,-1.1672,-1.1673,-1.1686,-1.1781,-1.1808,-1.1818,-1.1922,-1.1854,-1.186,-1.1864,-1.1867,-1.2087,-1.2089,0,0,0,0,0,0,-1.1448,-1.1469,-1.162,-1.1627,-1.1529,-1.1611,-1.1624,-1.1659,-1.1732,-1.1741,-1.1687,-1.1686,-1.1798,-1.181,-1.1822,-1.1913,-1.1861,-1.1867,-1.1871,-1.2085,-1.2087,-1.209,0,0,0,0,0,0,-1.1444,-1.1462,-1.1615,-1.1548,-1.1568,-1.1616,-1.1655,-1.1663,-1.169,-1.1743,-1.1752,-1.1706,-1.1797,-1.1813,-1.1887,-1.1918,-1.187,-1.1876,-1.2083,-1.2086,-1.2089,-1.2097,0,0,0,0,0,0,-1.1438,-1.146,-1.1488,-1.1549,-1.1571,-1.1677,-1.1657,-1.1666,-1.17,-1.17,-1.1764,-1.1773,-1.1797,-1.1877,-1.1893,-1.1926,-1.1881,-1.208,-1.2084,-1.2088,-1.2094,-1.21,-1.2105,0,0,0,0,0,-1.1431,-1.1488,-1.149,-1.1508,-1.1608,-1.1679,-1.1692,-1.1718,-1.1703,-1.1732,-1.1766,-1.1771,-1.1911,-1.1884,-1.1903,-1.1938,-1.2078,-1.2083,-1.2087,-1.2092,-1.2099,-1.2105,0,0,0,0,0,0,-1.1432,-1.1496,-1.1499,-1.1577,-1.1622,-1.1681,-1.1719,-1.1725,-1.1776,-1.1774,-1.1805,-1.1819,-1.1892,-1.1922,-1.1891,-1.2013,-1.1994,-1.2002,-1.1991,-1.1998,-1.2003,-1.1995,-1.1886,0,0,0,0,0,-1.1441,-1.1492,-1.1546,-1.1609,-1.1631,-1.1671,-1.1703,-1.1719,-1.1767,-1.1787,-1.1826,-1.1874,-1.1929,-1.1965,-1.2019,-1.2098,-1.2112,-1.2131,-1.2137,-1.2141,-1.2148,-1.2192,-1.2201,-1.2104,-1.2104,-1.2104,0,0,-1.1461,-1.1502,-1.1533,-1.161,-1.1647,-1.17,-1.1687,-1.1744,-1.1784,-1.1796,-1.1868,-1.1898,-1.1954,-1.203,-1.2066,-1.2058,-1.2177,-1.2146,-1.2149,-1.2155,-1.2197,-1.2206,-1.2214,-1.2107,-1.2107,-1.2106,0,0,-1.1524,-1.156,-1.1617,-1.1653,-1.1708,-1.1733,-1.1747,-1.1804,-1.1824,-1.1896,-1.1906,-1.1954,-1.2048,-1.2087,-1.2119,-1.2193,-1.22,-1.221,-1.2239,-1.2281,-1.2288,-1.2295,-1.2322,-1.2331,-1.2217,-1.2217,-1.2217,0,-1.1543,-1.1622,-1.1645,-1.1701,-1.1735,-1.1746,-1.1803,-1.1838,-1.1908,-1.1932,-1.1921,-1.2038,-1.2076,-1.2161,-1.2179,-1.2205,-1.2222,-1.2204,-1.2285,-1.2292,-1.2299,-1.2325,-1.2335,-1.2218,-1.2218,-1.2218,-1.2218,0,-1.1641,-1.1696,-1.1735,-1.18,-1.1838,-1.1895,-1.1928,-1.1963,-1.1975,-1.2001,-1.2074,-1.212,-1.2182,-1.2203,-1.2216,-1.229,-1.2283,-1.2278,-1.226,-1.2309,-1.2334,-1.2344,-1.2219,-1.2219,-1.2219,-1.2218,0,0,-1.1712,-1.1787,-1.1801,-1.183,-1.189,-1.1933,-1.199,-1.2049,-1.2079,-1.2126,-1.2175,-1.2253,-1.2248,-1.2284,-1.2301,-1.2338,-1.2394,-1.2328,-1.233,-1.2339,-1.2478,-1.2482,-1.2493,-1.2397,-1.2399,-1.2401,-1.2474,0,-1.1782,-1.1882,-1.1904,-1.1991,-1.2041,-1.205,-1.21,-1.2142,-1.2168,-1.2215,-1.2244,-1.2299,-1.2288,-1.231,-1.2346,-1.2379,-1.2422,-1.2374,-1.2444,-1.2446,-1.2431,-1.2506,-1.2511,-1.2578,-1.2483,-1.2485,-1.2486,0,-1.1879,-1.1926,-1.2017,-1.2068,-1.209,-1.2134,-1.2189,-1.2234,-1.2282,-1.2298,-1.2337,-1.2349,-1.2409,-1.2386,-1.2468,-1.2435,-1.2465,-1.2485,-1.2488,-1.2497,-1.247,-1.2518,-1.26,-1.261,-1.2502,-1.2501,-1.25,0,-1.1921,-1.2007,-1.2073,-1.2097,-1.2159,-1.2189,-1.2217,-1.2263,-1.2296,-1.2345,-1.2367,-1.2422,-1.2452,-1.2495,-1.2522,-1.2503,-1.2603,-1.2582,-1.2619,-1.2618,-1.2641,-1.2639,-1.2729,-1.2658,-1.2658,-1.2658,-1.2657,0,-1.1999,-1.2054,-1.2092,-1.2133,-1.2195,-1.2219,-1.228,-1.2307,-1.2347,-1.2394,-1.2405,-1.2449,-1.2481,-1.2529,-1.2551,-1.2616,-1.263,-1.2645,-1.265,-1.2644,-1.2643,-1.2665,-1.2662,-1.266,-1.266,-1.2659,-1.2659,0,-1.2058,-1.2085,-1.2157,-1.2208,-1.2222,-1.2266,-1.231,-1.235,-1.2374,-1.2432,-1.2447,-1.2487,-1.2544,-1.2574,-1.2646,-1.266,-1.2733,-1.2736,-1.2717,-1.2719,-1.2754,-1.2751,-1.2863,-1.2879,-1.2796,-1.2797,-1.2798,0,-1.2106,-1.2148,-1.2203,-1.2234,-1.2261,-1.2311,-1.2344,-1.2369,-1.2403,-1.2459,-1.2492,-1.2549,-1.2596,-1.2686,-1.2722,-1.2777,-1.2781,-1.2817,-1.279,-1.2782,-1.2782,-1.278,-1.2784,-1.2822,-1.2823,-1.2823,-1.2824,0,-1.2189,-1.2199,-1.2246,-1.2298,-1.2337,-1.2379,-1.242,-1.2445,-1.2477,-1.2515,-1.2572,-1.2608,-1.2679,-1.2736,-1.2793,-1.2822,-1.2829,-1.2831,-1.2843,-1.2838,-1.2826,-1.2833,-1.273,-1.2829,-1.2829,-1.2828,-1.2828,-1.2828,-1.2245,-1.2282,-1.2326,-1.2377,-1.241,-1.2448,-1.2487,-1.2515,-1.2563,-1.2622,-1.2633,-1.2694,-1.2739,-1.2816,-1.2846,-1.2894,-1.2887,-1.2904,-1.2908,-1.2912,-1.2914,-1.2816,-1.2904,-1.2904,-1.2904,-1.2904,-1.2904,0,-1.2328,-1.2356,-1.2403,-1.2459,-1.2499,-1.2499,-1.2545,-1.2579,-1.2631,-1.2672,-1.2717,-1.2781,-1.2835,-1.2874,-1.2929,-1.296,-1.2965,-1.2974,-1.2973,-1.2979,-1.2917,-1.2901,-1.2969,-1.2969,-1.2969,-1.2969,-1.2969,-1.2969,-1.2377,-1.244,-1.2455,-1.2535,-1.2562,-1.262,-1.2646,-1.2681,-1.2713,-1.2784,-1.2828,-1.2852,-1.2892,-1.295,-1.3,-1.301,-1.303,-1.3039,-1.3049,-1.2991,-1.2984,-1.2977,-1.2963,-1.3043,-1.3043,-1.3108,-1.3109,-1.3109]},{"header":{"parameterUnit":"m.s-1","parameterCategory":1,"la1":30.2991,"la2":30.254,"lo1":-89.0895,"lo2":-89.0444,"dy":0.0017,"dx":0.0017,"nx":28,"ny":28,"refTime":"2025-08-31T21:00:00:Z","depth":0,"parameterNumber":3,"parameterNumberName":"V-component_of_WINDS"},"data":[0,0,0,0,0,0,0,0,0,0,0,0,0,0,0,0,0,0,0,0,0,0,0,0,0,0,0,0,0,0,0,0,0,0,0,0,0,0,0,0,0,0,0,0,0,0,0,0,0,0,0,0,0,0,0,0,0,0,-2.0776,-2.0776,0,-2.0819,-2.0819,-2.082,-2.0817,-2.0816,-2.0815,-2.0815,-2.0855,-2.0857,-2.0859,0,0,0,0,0,0,0,0,0,0,0,0,0,-2.0686,-2.0688,-2.0776,-2.0776,-2.0777,-2.0819,-2.0819,-2.082,-2.0817,-2.0816,-2.0815,-2.0814,-2.0855,-2.0857,-2.0859,0,0,0,0,0,0,0,0,0,0,0,0,0,-2.0727,-2.0689,-2.0776,-2.078,-2.0781,-2.0819,-2.0819,-2.082,-2.0817,-2.0816,-2.0815,-2.0814,-2.0854,-2.0857,-2.0859,-2.0894,0,0,-2.0867,-2.0868,0,0,0,0,0,0,0,0,-2.0725,-2.073,-2.0779,-2.078,-2.0781,-2.0811,-2.0803,-2.0845,-2.0817,-2.0803,-2.0815,-2.0814,-2.0841,-2.0845,-2.0855,-2.0896,-2.0897,-2.0867,-2.0868,-2.087,-2.087,0,0,0,0,0,0,0,-2.0722,-2.0728,-2.0793,-2.078,-2.0781,-2.0779,-2.0784,-2.0811,-2.0827,-2.0804,-2.0804,-2.081,-2.0842,-2.0852,-2.0856,-2.0898,-2.0867,-2.0869,-2.0871,-2.0872,-2.0968,-2.0969,0,0,0,0,0,0,-2.0719,-2.0726,-2.0791,-2.0794,-2.075,-2.0781,-2.0787,-2.0803,-2.0827,-2.0829,-2.081,-2.0809,-2.0849,-2.0853,-2.0857,-2.0899,-2.087,-2.0872,-2.0873,-2.0967,-2.0968,-2.0969,0,0,0,0,0,0,-2.0717,-2.0724,-2.079,-2.076,-2.0768,-2.0784,-2.0802,-2.0804,-2.0815,-2.0831,-2.0834,-2.0819,-2.0848,-2.0854,-2.0885,-2.09,-2.0873,-2.0875,-2.0966,-2.0967,-2.0969,-2.0982,0,0,0,0,0,0,-2.0714,-2.0724,-2.0738,-2.076,-2.077,-2.0818,-2.0803,-2.0806,-2.082,-2.0819,-2.084,-2.0842,-2.0848,-2.0881,-2.0887,-2.0903,-2.0877,-2.0964,-2.0966,-2.0968,-2.098,-2.0984,-2.0987,0,0,0,0,0,-2.0711,-2.0739,-2.0739,-2.0747,-2.0788,-2.0818,-2.0824,-2.083,-2.0821,-2.0835,-2.0845,-2.0842,-2.0897,-2.0884,-2.0891,-2.0908,-2.0963,-2.0966,-2.0968,-2.0979,-2.0983,-2.0987,0,0,0,0,0,0,-2.0717,-2.0742,-2.0742,-2.0779,-2.0797,-2.0818,-2.0835,-2.0835,-2.0855,-2.0853,-2.0859,-2.0864,-2.0895,-2.0905,-2.0889,-2.0942,-2.0929,-2.0933,-2.0935,-2.0939,-2.0942,-2.0939,-2.0879,0,0,0,0,0,-2.0723,-2.0747,-2.0767,-2.0798,-2.0807,-2.082,-2.0833,-2.0837,-2.0855,-2.0862,-2.0875,-2.0891,-2.0913,-2.0926,-2.0947,-2.0982,-2.0986,-2.0997,-2.1,-2.1003,-2.1005,-2.1023,-2.1028,-2.0977,-2.0977,-2.0977,0,0,-2.0735,-2.0752,-2.0766,-2.0799,-2.0814,-2.0837,-2.0826,-2.0851,-2.0868,-2.0865,-2.0896,-2.0905,-2.0924,-2.0957,-2.0972,-2.0966,-2.1021,-2.1006,-2.1008,-2.1009,-2.1026,-2.1031,-2.1035,-2.0979,-2.0978,-2.0978,0,0,-2.0769,-2.0784,-2.0811,-2.0826,-2.0848,-2.0856,-2.0862,-2.0884,-2.0891,-2.0921,-2.092,-2.0939,-2.0976,-2.0989,-2.1001,-2.1039,-2.1036,-2.1045,-2.1062,-2.108,-2.1084,-2.1087,-2.11,-2.1104,-2.1049,-2.1049,-2.1049,0,-2.078,-2.0816,-2.0825,-2.085,-2.0864,-2.0864,-2.089,-2.0904,-2.0931,-2.094,-2.0933,-2.0979,-2.0991,-2.1027,-2.1036,-2.1046,-2.1052,-2.1043,-2.1083,-2.1086,-2.109,-2.1102,-2.1107,-2.1049,-2.1049,-2.1049,-2.1049,0,-2.0829,-2.0854,-2.0873,-2.09,-2.0916,-2.0942,-2.0952,-2.0968,-2.097,-2.0978,-2.1009,-2.1024,-2.1048,-2.1056,-2.1058,-2.1092,-2.1087,-2.1082,-2.1068,-2.1095,-2.1107,-2.1111,-2.1051,-2.105,-2.105,-2.105,0,0,-2.0867,-2.0899,-2.0905,-2.0917,-2.0942,-2.096,-2.0985,-2.1009,-2.1022,-2.104,-2.106,-2.1091,-2.1086,-2.1099,-2.1103,-2.1118,-2.1146,-2.1111,-2.1111,-2.1116,-2.1182,-2.1186,-2.1191,-2.1145,-2.1146,-2.1146,-2.118,0,-2.0902,-2.0948,-2.0956,-2.0995,-2.1018,-2.1018,-2.104,-2.1056,-2.1065,-2.1084,-2.1093,-2.1114,-2.1107,-2.1114,-2.113,-2.1139,-2.1159,-2.1137,-2.1162,-2.1163,-2.1156,-2.1197,-2.1201,-2.1232,-2.1185,-2.1186,-2.1186,0,-2.0949,-2.097,-2.1012,-2.1033,-2.1042,-2.1062,-2.1084,-2.1103,-2.1121,-2.1126,-2.1141,-2.1142,-2.1167,-2.1153,-2.1186,-2.1171,-2.1182,-2.1188,-2.1189,-2.1191,-2.1175,-2.1199,-2.1242,-2.1247,-2.1193,-2.1193,-2.1192,0,-2.0971,-2.101,-2.104,-2.105,-2.1075,-2.1089,-2.11,-2.1117,-2.1131,-2.1149,-2.1158,-2.1179,-2.119,-2.1206,-2.1213,-2.1203,-2.1245,-2.1232,-2.1249,-2.1248,-2.1257,-2.1256,-2.1301,-2.1265,-2.1265,-2.1265,-2.1265,0,-2.1009,-2.1034,-2.105,-2.1068,-2.1096,-2.1104,-2.1131,-2.1142,-2.1157,-2.1176,-2.1178,-2.1195,-2.1204,-2.1222,-2.1228,-2.1254,-2.1259,-2.1263,-2.1264,-2.1262,-2.1261,-2.1268,-2.1266,-2.1266,-2.1266,-2.1266,-2.1266,0,-2.1038,-2.105,-2.1082,-2.1104,-2.111,-2.1129,-2.1147,-2.1164,-2.1172,-2.1197,-2.1203,-2.1216,-2.1238,-2.1246,-2.1273,-2.1276,-2.1306,-2.1306,-2.13,-2.13,-2.1315,-2.1313,-2.1366,-2.1373,-2.1333,-2.1334,-2.1334,0,-2.1061,-2.1081,-2.1104,-2.1118,-2.1129,-2.1151,-2.1165,-2.1174,-2.1188,-2.121,-2.1224,-2.1246,-2.1264,-2.1299,-2.131,-2.133,-2.133,-2.1347,-2.1333,-2.133,-2.1328,-2.1327,-2.1328,-2.1349,-2.1349,-2.135,-2.135,0,-2.11,-2.1105,-2.1125,-2.1148,-2.1165,-2.1183,-2.1201,-2.1211,-2.1223,-2.1238,-2.1261,-2.1276,-2.1303,-2.1324,-2.1345,-2.1355,-2.1354,-2.1355,-2.1359,-2.1357,-2.1353,-2.1354,-2.1306,-2.1353,-2.1353,-2.1352,-2.1352,-2.1352,-2.1126,-2.1143,-2.1162,-2.1185,-2.1199,-2.1216,-2.1232,-2.1244,-2.1263,-2.1287,-2.1291,-2.1315,-2.1332,-2.1359,-2.137,-2.1388,-2.1383,-2.139,-2.1392,-2.1393,-2.1394,-2.1351,-2.1392,-2.1392,-2.1392,-2.1392,-2.1392,0,-2.1163,-2.1176,-2.1197,-2.1222,-2.124,-2.1239,-2.1258,-2.1272,-2.1294,-2.1311,-2.1329,-2.1354,-2.1375,-2.1388,-2.1408,-2.142,-2.142,-2.1425,-2.1424,-2.1426,-2.1397,-2.1391,-2.1425,-2.1425,-2.1425,-2.1425,-2.1425,-2.1425,-2.1185,-2.1214,-2.1221,-2.1256,-2.1268,-2.1293,-2.1304,-2.1318,-2.1331,-2.136,-2.1378,-2.1387,-2.1401,-2.1423,-2.1441,-2.1444,-2.1451,-2.1456,-2.1459,-2.1432,-2.1428,-2.1425,-2.1419,-2.1458,-2.1458,-2.1486,-2.1486,-2.1486]}]]